EHI
0 0 0 0 0 0 0 0 0 0 0 0 0 0 0 0 0 0 0 0 0 0 0 0 0 0 0 0 0 0 0 0 0 0 0 0 0 0 0 0 0 0 0
0 0 0 0 0 0 0 0 0 0 0 0 0 0 0 0 0 0 0 0 0 0 0 0 0 0 0 0 0 0 0 0 0 0 0 0 0 0 0 0 0 0 0
0 0 0 0 0 0 0 0 0 0 0 0 0 0 0 0 0 0 0 0 0 0 0 0 0 0 0 0 0 0 0 0 0 0 0 0 0 0 0 0 0 0 0
0 0 0 0 0 0 0 0 0 0 0 0 0 0 0 0 0 0 0 0 0 0 0 0 0 0 0 0 0 0 0 0 0 0 0 0 0 0 0 0 0 0 0
0 0 0 0 0 0 0 0 0 0 0 0 0 0 0 0 0 0 0 0 0 0 0 0 0 0 0 0 0 0 0 0 0 0 0 0 0 0 0 0 0 0 0
0 0 0 0 0 0 0 0 0 0 0 0 0 0 0 0 0 0 0 0 0 0 0 0 0 0 0 0 0 0 0 0 0 0 0 0 0 0 0 0 0 0 0
0 0 0 0 0 0 0 0 0 0 0 0 0 0 0 0 0 0 0 0 0 0 0 0 0 0 0 0 0 0 0 0 0 0 0 0 0 0 0 0 0 0 0
0 0 0 0 0 0 0 0 0 0 0 0 0 0 0 0 0 0 0 0 0 0 0 0 0 0 0 0 0 0 0 0 0 0 0 0 0 0 0 0 0 0 0
0 0 0 0 0 0 0 0 0 0 0 0 0 0 0 0 0 0 0 0 0 0 0 0 0 0 0 0 0 0 0 0 0 0 0 0 0 0 0 0 0 0 0
0 0 0 0 0 0 0 0 0 0 0 0 0 0 0 0 0 0 0 0 0 0 0 0 0 0 0 0 0 0 0 0 0 0 0 0 0 0 0 0 0 0 0
0 0 0 0 0 0 0 0 0 0 0 0 0 0 0 0 0 0 0 0 0 0 0 0 0 0 0 0 0 0 0 0 0 0 0 0 0 0 0 0 0 0 0
0 0 0 0 0 0 0 0 0 0 0 0 0 0 0 0 0 0 0 0 0 0 0 0 0 0 0 0 0 0 0 0 0 0 0 0 0 0 0 0 0 0 0
0 0 0 0 0 0 0 0 0 0 0 0 0 0 0 0 0 0 0 0 0 0 0 0 0 0 0 0 0 0 0 0 0 0 0 0 0 0 0 0 0 0 0
0 0 0 0 0 0 0 0 0 0 0 0 0 0 0 0 0 0 0 0 0 0 0 0 0 0 0 0 0 0 0 0 0 0 0 0 0 0 0 0 0 0 0
0 0 0 0 0 0 0 0 0 0 0 0 0 0 0 0 0 0 0 0 0 0 0 0 0 0 0 0 0 0 0 0 0 0 0 0 0 0 0 0 0 0 0
0 0 0 0 0 0 0 0 0 0 0 0 0 0 0 0 0 0 0 0 0 0 0 0 0 0 0 0 0 0 0 0 0 0 0 0 0 0 0 0 0 0 0
0 0 0 0 0 0 0 0 0 0 0 0 0 0 0 0 0 0 0 0 0 0 0 0 0 0 0 0 0 0 0 0 0 0 0 0 0 0 0 0 0 0 0
0 0 0 0 0 0 0 0 0 0 0 0 0 0 0 0 0 0 0 0 0 0 0 0 0 0 0 0 0 0 0 0 0 0 0 0 0 0 0 0 0 0 0
0 0 0 0 0 0 0 0 0 0 0 0 0 0 0 0 0 0 0 0 0 0 0 0 0 0 0 0 0 0 0 0 0 0 0 0 0 0 0 0 0 0 0
0 0 0 0 0 0 0 0 0 0 0 0 0 0 0 0 0 0 0 0 0 0 0 0 0 0 0 0 0 0 0 0 0 0 0 0 0 0 0 0 0 0 0
0 0 0 0 0 0 0 0 0 0 0 0 0 0 0 0 0 0 0 0 0 0 0 0 0 0 0 0 0 0 0 0 0 0 0 0 0 0 0 0 0 0 0
0 0 0 0 0 0 0 0 0 0 0 0 0 0 0 0 0 0 0 0 0 0 0 0 0 0 0 0 0 0 0 0 0 0 0 0 0 0 0 0 0 0 0
0 0 0 0 0 0 0 0 0 0 0 0 0 0 0 0 0 0 0 0 0 0 0 0 0 0 0 0 0 0 0 0 0 0 0 0 0 0 0 0 0 0 0
0 0 0 0 0 0 0 0 0 0 0 0 0 0 0 0 0 0 0 0 0 0 0 0 0 0 0 0 0 0 0 0 0 0 0 0 0 0 0 0 0 0 0
0 0 0 0 0 0 0 0 0 0 0 0 0 0 0 0 0 0 0 0 0 0 0 0 0 0 0 0 0 0 0 0 0 0 0 0 0 0 0 0 0 0 0
0 0 0 0 0 0 0 0 0 0 0 0 0 0 0 0 0 0 0 0 0 0 0 0 0 0 0 0 0 0 0 0 0 0 0 0 0 0 0 0 0 0 0
Wind_Speed
5 4 3 3 2 2 1 2 2 2 2 3 3 2 2 2 2 3 3 4 5 5 5 4 5 4 3 2 2 2 2 3 4 4 3 2 3 4 3 4 6 7 8
5 4 3 2 2 2 2 2 1 1 2 2 2 2 2 2 2 2 3 4 4 5 5 5 5 4 4 3 2 2 2 3 3 5 3 2 4 4 4 4 5 6 6
5 4 3 2 3 3 3 2 1 1 1 2 1 1 2 2 1 2 2 3 4 4 5 5 5 5 4 3 3 2 2 2 2 3 3 2 2 2 2 3 4 4 6
5 5 4 4 4 4 3 3 2 2 1 1 2 2 2 2 2 2 2 3 4 5 5 5 5 4 4 4 3 3 2 2 2 2 3 3 3 2 2 3 3 3 4
6 6 6 5 4 4 3 3 3 2 2 2 2 3 3 3 3 3 3 4 4 6 6 5 6 7 7 4 3 3 2 2 2 2 3 2 3 2 3 2 3 3 3
6 7 6 5 5 5 4 4 3 3 3 3 3 4 4 4 5 6 4 4 4 5 6 6 6 5 6 8 8 6 4 3 3 3 3 4 4 3 3 3 3 2 3
6 6 5 6 6 6 5 4 4 4 3 4 4 4 5 6 9 9 7 3 4 4 5 5 5 5 5 4 6 8 6 7 6 4 5 6 5 4 3 4 4 4 4
5 5 5 6 6 6 5 5 5 4 4 4 5 5 5 7 10 9 8 4 3 4 5 5 4 5 5 5 4 4 5 5 5 4 5 6 6 5 5 5 5 4 3
4 5 5 6 6 6 6 7 5 4 5 5 5 5 6 8 10 10 7 2 3 5 5 4 4 4 8 7 4 5 6 6 6 7 8 9 11 11 7 4 4 4 4
4 5 4 4 5 6 7 6 5 5 6 5 6 6 6 7 10 11 8 3 3 4 4 5 6 7 8 8 4 4 7 7 6 7 7 7 6 7 9 7 5 5 4
2 2 2 2 4 5 5 4 4 5 5 5 6 6 6 8 10 11 10 4 4 4 4 4 4 9 10 10 7 5 9 9 6 6 6 5 5 4 4 4 5 6 6
1 1 1 2 2 2 3 4 4 4 4 5 5 6 5 6 7 9 11 11 9 5 5 4 5 10 11 11 8 9 12 10 4 4 5 5 4 4 3 3 4 5 6
3 3 3 3 3 3 3 4 4 3 3 4 4 5 6 4 5 10 11 11 11 6 5 8 9 11 11 8 10 12 9 4 3 4 5 5 4 4 3 3 3 3 4
4 4 4 4 5 5 3 3 3 3 3 3 3 4 5 4 4 4 4 4 6 6 5 6 8 9 7 8 9 6 4 4 4 4 5 4 3 3 3 2 2 2 2
5 4 4 4 4 4 4 3 3 3 3 2 3 3 3 5 7 7 4 4 4 4 2 2 2 3 4 4 4 4 4 3 4 3 4 4 4 3 3 2 2 2 3
4 4 3 3 4 4 4 5 6 6 9 9 7 6 4 6 9 6 6 6 5 3 2 2 3 4 4 5 5 5 4 4 4 4 4 4 4 4 4 2 2 3 4
4 3 3 4 4 4 4 5 5 7 10 12 14 15 12 12 10 7 4 2 1 1 0 3 4 5 5 5 5 5 5 5 4 4 4 4 4 4 4 3 3 3 4
4 5 4 3 3 4 4 4 4 4 6 7 9 14 16 14 13 11 7 5 4 3 2 4 5 5 5 5 5 5 6 5 4 4 4 5 5 4 4 4 4 4 4
4 3 3 3 3 3 4 4 4 5 5 5 5 8 13 11 11 12 9 5 4 4 4 4 5 5 6 6 6 6 6 6 5 4 4 5 5 5 5 5 5 6 5
3 7 5 3 3 3 4 4 4 4 4 5 5 6 7 8 7 8 7 6 5 5 6 6 6 6 7 7 7 6 6 6 6 5 5 5 5 5 6 7 6 5 5
3 4 7 4 3 3 3 3 3 3 3 3 3 5 8 5 5 5 5 5 5 6 6 6 6 7 7 7 7 8 8 7 6 7 6 6 5 5 6 6 6 6 5
2 2 2 2 2 2 2 2 2 2 3 3 3 3 6 3 3 3 3 3 3 3 3 4 4 5 5 6 7 8 8 8 9 9 9 9 7 7 6 6 6 6 6
2 2 2 2 2 2 3 2 2 2 2 2 2 2 3 2 2 2 3 3 3 3 3 3 3 3 4 3 3 4 5 6 7 8 9 9 9 9 8 8 8 8 8
2 2 1 1 2 2 2 2 2 2 3 3 3 3 3 3 3 4 4 4 4 4 4 3 4 5 6 5 3 2 2 3 5 6 9 9 9 9 9 8 9 9 9
1 1 1 1 1 1 2 2 3 3 3 3 3 3 4 4 4 4 4 4 5 5 6 6 5 5 7 8 7 5 6 7 6 5 6 7 9 10 10 10 9 9 9
0 1 1 1 1 2 2 2 3 3 4 4 4 4 4 5 5 5 5 5 5 6 7 6 8 9 10 8 9 11 11 11 10 9 6 6 8 8 9 9 11 10 11
Wind_Direction
208 210 212 229 235 219 223 253 264 297 320 333 338 348 357 1 2 11 356 358 356 342 340 340 327 314 304 297 275 238 220 209 242 265 256 257 242 244 237 221 220 218 218
206 207 213 216 207 205 219 236 239 295 322 337 356 4 356 356 354 1 350 355 348 335 329 331 327 331 319 300 287 265 245 227 229 259 270 262 249 242 235 231 226 221 220
200 203 207 199 198 206 214 225 229 255 319 345 4 348 329 321 324 327 325 328 325 317 314 315 313 323 317 305 294 277 264 261 236 247 266 260 262 252 243 241 232 226 223
195 200 209 212 208 210 212 221 227 235 264 289 285 282 280 273 270 284 303 311 315 313 310 305 301 297 289 289 284 274 273 279 270 261 266 268 261 258 230 234 238 222 224
193 204 217 216 210 206 211 223 230 241 247 256 270 282 284 267 246 251 279 296 308 313 314 310 303 305 302 299 288 266 257 264 275 270 272 272 266 254 241 231 236 235 232
199 213 217 210 207 210 215 220 230 247 260 264 266 270 276 272 271 265 265 279 295 303 308 311 311 313 327 333 327 313 271 247 253 258 262 261 262 252 248 242 236 230 246
209 219 217 209 212 219 217 215 231 243 248 258 261 259 262 269 273 275 275 267 279 290 295 303 312 319 329 320 318 320 313 296 268 246 252 254 256 246 240 245 235 230 235
213 222 221 213 219 225 223 229 236 235 238 244 251 252 255 264 267 268 271 266 272 282 285 287 291 300 304 310 307 311 305 299 290 271 248 255 256 255 238 237 240 248 255
220 227 225 214 218 224 228 235 234 231 239 238 242 245 249 264 267 261 257 242 268 283 287 288 288 288 298 313 306 303 304 300 294 287 274 272 270 270 255 232 228 230 249
238 234 227 213 215 227 234 238 234 227 238 243 248 244 243 254 263 259 244 213 254 275 287 287 289 289 296 307 292 287 293 294 301 306 301 295 282 277 264 231 219 224 233
264 243 240 237 237 241 247 247 244 243 248 250 256 259 251 249 261 259 238 204 224 252 271 279 281 294 298 300 294 271 272 282 285 286 290 288 284 273 261 238 221 219 226
28 29 324 295 285 290 272 275 268 258 260 263 264 274 267 257 253 257 245 224 216 220 246 257 270 289 296 298 294 281 284 288 277 283 286 284 281 274 268 262 245 237 238
49 21 348 340 330 324 310 301 299 284 267 270 266 271 278 272 263 258 253 239 228 221 240 255 270 284 297 297 291 292 294 279 270 275 277 277 268 266 272 276 269 249 247
51 25 8 1 348 342 334 321 314 305 295 287 281 276 279 283 275 265 255 246 237 238 249 271 285 290 288 281 290 293 277 254 252 260 269 272 273 276 273 270 269 265 262
53 32 17 12 1 350 343 330 323 303 307 295 289 276 280 286 278 253 223 227 223 229 234 279 294 303 304 302 298 291 283 273 260 254 260 274 280 278 272 262 258 252 250
52 29 17 8 1 357 352 347 350 358 3 11 5 352 319 309 312 299 254 240 232 209 178 272 286 289 288 291 295 297 291 276 263 255 256 258 266 271 274 265 253 258 259
59 36 20 15 11 6 7 9 357 354 10 21 19 15 12 4 3 357 337 307 347 112 287 288 289 290 290 288 284 283 283 278 266 253 253 254 254 257 260 259 254 257 257
51 42 42 25 18 15 13 11 13 13 9 4 4 10 12 15 20 21 25 42 24 19 333 313 311 307 302 297 292 288 286 284 274 258 254 254 250 249 251 251 248 249 254
48 39 40 30 25 22 18 20 22 23 20 8 5 7 10 15 27 31 35 36 17 1 349 336 326 320 314 308 302 298 293 287 279 268 257 253 249 245 249 248 246 245 242
43 49 60 47 30 25 23 25 23 22 21 19 17 8 3 19 27 22 23 21 17 7 359 354 349 348 343 336 327 318 311 306 299 286 273 263 253 245 248 248 243 241 237
50 37 45 46 30 25 25 22 19 22 20 16 8 9 20 26 23 16 16 14 12 6 0 359 357 352 349 347 346 343 341 339 336 328 315 297 278 262 252 246 242 238 235
67 46 37 34 20 17 15 10 12 14 9 7 347 353 12 22 10 5 358 353 351 346 342 346 349 347 349 355 356 355 356 355 350 344 334 323 308 288 271 256 246 238 231
65 44 28 16 10 6 10 358 353 346 340 335 330 335 344 344 335 328 318 309 308 308 307 310 316 320 325 328 340 350 352 349 342 336 333 329 322 311 296 275 257 243 235
62 41 15 351 352 353 340 331 328 322 317 314 311 306 303 301 298 296 290 285 284 284 281 278 279 288 297 298 290 285 291 306 321 325 327 322 320 316 310 300 281 258 244
51 13 347 326 325 318 314 315 314 310 307 303 300 299 297 296 293 291 287 282 283 281 282 278 271 273 276 278 275 267 269 278 287 304 312 313 314 314 314 307 301 288 264
346 313 295 290 292 288 289 296 300 304 302 302 301 299 297 295 291 289 288 285 284 282 282 279 274 273 273 273 271 270 271 271 275 282 290 297 304 304 309 305 303 299 286